Location: Unspecified
(0.0000°N, 0.0000°E)
Time: 22:58:01
(UTC+00:00)

N. Korean satellite - Pass Details

Date: 19 October 2020
Orbit: 452 x 505 km, 97.2° (Epoch: 30 October)

Event Time Altitude Azimuth Distance (km) Brightness Sun altitude
Rises 04:25:45 0° 40° (NE) 2,447 10.5 -19.5°
Reaches altitude 10° 04:28:26 10° 64° (ENE) 1,580 9.9 -18.8°
Maximum altitude 04:30:27 15° 101° (ESE) 1,303 9.8 -18.3°
Drops below altitude 10° 04:32:30 10° 138° (SE) 1,591 9.9 -17.8°
Sets 04:35:12 0° 162° (SSE) 2,475 10.6 -17.2°
